GW1943 Weather Reports


Display with metric or nautical units.
time (UTC)temp
F
wind
direction
speed
MPH
gust
MPH
rain 1hr
in
rain 24hr
in
rain mn
in
humidity
%
barometer
mb
20260903001438 60 215 0.0 0.0 0.00 0.22 0.22 99 1005.5
20260903000932 60 212 0.0 0.0 0.00 0.22 0.22 99 1005.6
20260903000428 60 212 0.0 0.0 0.00 0.22 0.22 99 1005.2
20260902235925 60 208 0.0 0.0 0.00 0.22 0.22 99 1005.5
20260902235420 60 211 0.0 0.0 0.00 0.22 0.22 99 1005.5
20260902234915 60 211 0.0 0.0 0.00 0.22 0.22 99 1005.3
20260902234410 59 211 0.0 0.0 0.00 0.22 0.22 99 1005.5
20260902233909 59 216 0.0 0.0 0.00 0.22 0.22 98 1005.4
20260902233403 59 200 0.0 1.0 0.00 0.22 0.22 98 1005.5
20260902232901 59 197 0.0 0.0 0.00 0.22 0.22 98 1005.6
20260902232356 59 203 0.0 0.0 0.05 0.22 0.22 98 1005.7
20260902231851 59 203 0.0 0.0 0.12 0.22 0.22 98 1005.9
20260902231346 59 204 0.0 0.0 0.12 0.21 0.21 98 1006.0
20260902230841 60 202 0.0 0.0 0.07 0.19 0.19 98 1006.0
20260902230340 60 203 0.0 0.0 0.12 0.19 0.19 98 1006.0
20260902225834 60 188 0.0 0.0 0.12 0.18 0.18 98 1006.3
20260902225329 60 212 0.0 0.0 0.07 0.17 0.17 97 1006.1
20260902224827 60 213 0.0 0.0 0.05 0.16 0.16 97 1006.2
20260902224323 60 213 0.0 0.0 0.07 0.15 0.15 97 1005.7
20260902223819 60 216 0.0 0.0 0.07 0.15 0.15 96 1005.9
20260902223319 60 206 0.0 0.0 0.07 0.14 0.14 96 1005.7
20260902222819 60 207 0.0 0.0 0.12 0.14 0.14 96 1005.9
20260902222312 60 205 0.0 0.0 0.05 0.13 0.13 95 1005.7
20260902221807 60 215 0.0 0.0 0.07 0.12 0.12 95 1005.8
20260902221306 60 216 0.0 0.0 0.12 0.12 0.12 94 1006.0
20260902220802 60 214 0.0 3.0 0.07 0.10 0.10 94 1005.9
20260902220301 60 212 0.0 0.0 0.12 0.10 0.10 93 1005.8
20260902215757 60 212 0.0 0.0 0.12 0.09 0.09 92 1006.2
20260902215252 60 213 0.0 1.0 0.07 0.08 0.08 92 1005.9
20260902214748 60 211 0.0 1.0 0.00 0.07 0.07 91 1006.2
20260902214247 60 247 0.0 2.0 0.05 0.07 0.07 90 1006.1
20260902213743 61 208 1.0 3.0 0.05 0.07 0.07 90 1006.0
20260902213242 61 207 0.0 2.0 0.00 0.06 0.06 89 1006.0
20260902212741 61 212 0.0 2.0 0.07 0.06 0.06 90 1006.1
20260902212238 61 218 1.0 2.0 0.00 0.05 0.05 89 1006.2
20260902211734 62 244 0.0 2.0 0.05 0.05 0.05 88 1006.1
20260902211230 62 210 1.0 3.0 0.05 0.05 0.05 86 1006.1
20260902210730 62 272 1.0 6.0 0.00 0.04 0.04 84 1006.0
20260902210225 63 218 1.0 3.0 0.00 0.04 0.04 84 1005.9
20260902205723 64 231 1.0 3.0 0.00 0.04 0.04 83 1006.0
20260902205218 64 233 1.0 2.0 0.00 0.04 0.04 83 1006.2
20260902204714 65 237 4.0 5.0 0.00 0.04 0.04 80 1006.0
20260902204208 65 213 0.0 2.0 0.00 0.04 0.04 84 1005.9
20260902203703 65 217 0.0 0.0 0.00 0.04 0.04 87 1006.0
20260902203158 64 217 0.0 0.0 0.00 0.04 0.04 89 1006.0
20260902202653 63 216 0.0 0.0 0.00 0.04 0.04 89 1006.0
20260902202150 62 205 0.0 1.0 0.00 0.04 0.04 91 1006.1
20260902201646 63 216 0.0 0.0 0.00 0.04 0.04 93 1006.0
20260902201144 62 217 0.0 0.0 0.00 0.04 0.04 93 1006.1
20260902200639 61 218 0.0 0.0 0.00 0.04 0.04 92 1006.3
20260902200135 60 214 0.0 0.0 0.07 0.04 0.04 92 1006.3
20260902195631 60 223 0.0 3.0 0.19 0.04 0.04 89 1006.2
20260902195131 61 268 3.0 6.0 0.07 0.02 0.02 86 1006.4
20260902194629 64 220 3.0 8.0 0.00 0.01 0.01 80 1006.3
20260902194125 66 243 4.0 10.0 0.00 0.01 0.01 68 1006.3
20260902193620 67 241 2.0 9.0 0.00 0.01 0.01 68 1006.0
20260902193115 71 240 3.0 7.0 0.00 0.01 0.01 63 1006.2
20260902192613 72 212 3.0 3.0 0.00 0.01 0.01 57 1006.0
20260902192112 72 213 0.0 2.0 0.00 0.01 0.01 60 1005.9
20260902191608 71 217 0.0 0.0 0.00 0.01 0.01 63 1006.0
20260902191102 70 217 0.0 1.0 0.00 0.01 0.01 63 1006.1
20260902190558 70 217 0.0 0.0 0.00 0.01 0.01 62 1005.9
20260902190053 69 207 1.0 2.0 0.00 0.01 0.01 63 1006.1
20260902185549 69 218 0.0 1.0 0.00 0.01 0.01 61 1006.1
20260902185044 69 201 0.0 0.0 0.00 0.01 0.01 63 1006.1
20260902184539 69 199 0.0 0.0 0.00 0.01 0.01 64 1006.3
20260902184034 68 202 0.0 0.0 0.00 0.01 0.01 66 1006.2
20260902183531 68 215 0.0 0.0 0.00 0.01 0.01 66 1006.2
20260902183027 68 201 0.0 0.0 0.00 0.01 0.01 70 1006.5
20260902182523 67 215 0.0 0.0 0.00 0.01 0.01 70 1006.6
20260902182019 66 211 0.0 0.0 0.00 0.01 0.01 72 1006.3
20260902181514 66 203 0.0 0.0 0.00 0.01 0.01 74 1006.4
20260902181008 65 201 0.0 1.0 0.00 0.01 0.01 72 1006.6
20260902180503 66 215 0.0 0.0 0.00 0.01 0.01 72 1006.6
20260902175958 66 197 0.0 0.0 0.00 0.01 0.01 72 1006.7
20260902175453 66 197 0.0 0.0 0.00 0.01 0.01 71 1006.7
20260902174949 66 211 0.0 1.0 0.00 0.01 0.01 71 1006.9
20260902174446 66 209 0.0 0.0 0.00 0.01 0.01 74 1006.8
20260902173941 65 210 0.0 0.0 0.00 0.01 0.01 72 1007.0
20260902173440 66 199 0.0 0.0 0.00 0.01 0.01 72 1006.9
20260902172935 66 203 0.0 0.0 0.00 0.01 0.01 72 1006.9
20260902172434 66 202 0.0 1.0 0.00 0.01 0.01 71 1007.0
20260902171930 65 210 0.0 0.0 0.00 0.01 0.01 71 1007.0
20260902171425 65 216 0.0 1.0 0.00 0.01 0.01 72 1007.1
20260902170921 65 216 0.0 0.0 0.00 0.01 0.01 74 1007.2
20260902170416 64 217 0.0 1.0 0.00 0.01 0.01 74 1007.2
20260902165912 65 216 0.0 1.0 0.00 0.01 0.01 75 1007.1
20260902165411 65 217 0.0 1.0 0.00 0.01 0.01 73 1007.6
20260902164906 65 224 0.0 0.0 0.00 0.01 0.01 72 1007.5
20260902164401 66 221 0.0 0.0 0.00 0.01 0.01 72 1007.3
20260902163900 65 221 0.0 0.0 0.00 0.01 0.01 73 1007.4
20260902163355 65 217 0.0 0.0 0.00 0.01 0.01 73 1007.5
20260902162853 65 224 1.0 1.0 0.00 0.01 0.01 73 1007.6
20260902162349 65 215 0.0 2.0 0.00 0.01 0.01 73 1007.6
20260902161849 65 200 0.0 1.0 0.00 0.01 0.01 73 1007.6
20260902161344 65 213 1.0 1.0 0.00 0.01 0.01 74 1007.5
20260902160840 65 204 0.0 0.0 0.00 0.01 0.01 73 1007.5
20260902160335 64 205 0.0 0.0 0.00 0.01 0.01 76 1007.6
20260902155833 64 270 0.0 0.0 0.00 0.01 0.01 76 1007.6
20260902155332 63 208 0.0 1.0 0.00 0.01 0.01 77 1007.7
20260902154827 63 219 0.0 0.0 0.00 0.01 0.01 79 1007.7
20260902154323 63 214 0.0 0.0 0.00 0.01 0.01 80 1007.8
20260902153822 63 213 0.0 0.0 0.00 0.01 0.01 83 1008.0
20260902153321 62 206 0.0 0.0 0.00 0.01 0.01 82 1008.0
20260902152817 62 180 0.0 0.0 0.00 0.01 0.01 83 1008.1
20260902152313 61 197 0.0 0.0 0.00 0.01 0.01 85 1008.0
20260902151808 61 199 0.0 0.0 0.00 0.01 0.01 85 1008.2
20260902151303 60 200 0.0 0.0 0.00 0.01 0.01 86 1008.2
20260902150758 60 200 0.0 1.0 0.00 0.01 0.01 86 1008.3
20260902150254 59 201 0.0 0.0 0.00 0.01 0.01 88 1008.4
20260902145753 59 201 0.0 0.0 0.00 0.01 0.01 88 1008.3
20260902145248 59 202 0.0 0.0 0.00 0.01 0.01 89 1008.3
20260902144744 59 197 0.0 0.0 0.00 0.01 0.01 89 1008.4
20260902144240 59 198 0.0 0.0 0.00 0.01 0.01 89 1008.8
20260902143734 59 201 0.0 0.0 0.00 0.01 0.01 89 1008.6
20260902143230 59 195 0.0 0.0 0.00 0.01 0.01 89 1008.7
20260902142720 59 198 0.0 0.0 0.00 0.01 0.01 89 1008.6
20260902142215 59 202 0.0 0.0 0.00 0.01 0.01 89 1008.9
20260902141710 58 202 0.0 0.0 0.00 0.01 0.01 90 1008.9
20260902141205 58 205 0.0 0.0 0.00 0.01 0.01 91 1008.9
20260902140700 58 207 0.0 1.0 0.00 0.01 0.01 92 1008.6
20260902140155 58 198 0.0 0.0 0.00 0.01 0.01 92 1008.6
20260902135654 58 198 0.0 0.0 0.00 0.01 0.01 93 1008.7
20260902135149 57 198 0.0 0.0 0.00 0.01 0.01 93 1008.7
20260902134645 58 198 0.0 0.0 0.00 0.01 0.01 93 1009.0
20260902134144 58 199 0.0 0.0 0.00 0.01 0.01 92 1008.8
20260902133639 58 199 0.0 0.0 0.00 0.01 0.01 92 1008.6
20260902133133 58 199 0.0 0.0 0.00 0.01 0.01 92 1008.6
20260902132629 58 200 0.0 0.0 0.00 0.01 0.01 91 1008.7
20260902132124 58 200 0.0 0.0 0.00 0.01 0.01 91 1008.8
20260902131621 58 198 0.0 0.0 0.00 0.01 0.01 91 1008.8
20260902131115 59 170 0.0 0.0 0.00 0.01 0.01 91 1008.9
20260902130611 59 197 0.0 0.0 0.00 0.01 0.01 91 1008.6
20260902130106 59 187 0.0 0.0 0.00 0.01 0.01 91 1009.1
20260902125602 59 199 0.0 1.0 0.00 0.01 0.01 91 1009.1
20260902125057 59 201 0.0 0.0 0.00 0.01 0.01 91 1009.0
20260902124554 59 205 0.0 0.0 0.00 0.01 0.01 91 1009.2
20260902124054 59 200 0.0 0.0 0.00 0.01 0.01 91 1009.2
20260902123549 59 204 0.0 0.0 0.00 0.01 0.01 91 1009.3
20260902123044 59 170 0.0 0.0 0.00 0.01 0.01 91 1009.2
20260902122544 59 210 0.0 0.0 0.00 0.01 0.01 91 1009.3
20260902122040 59 209 0.0 0.0 0.00 0.01 0.01 91 1009.4
20260902121539 59 197 0.0 0.0 0.00 0.01 0.01 91 1009.2
20260902121034 59 210 0.0 0.0 0.00 0.01 0.01 91 1009.2
20260902120531 59 200 0.0 0.0 0.00 0.01 0.01 92 1009.3
20260902120027 59 200 0.0 0.0 0.00 0.01 0.01 92 1009.1
20260902115521 59 199 0.0 1.0 0.00 0.01 0.01 93 1009.3
20260902115018 59 206 0.0 0.0 0.00 0.01 0.01 93 1009.4
20260902114513 58 205 0.0 1.0 0.00 0.01 0.01 93 1009.5
20260902114013 58 205 0.0 0.0 0.00 0.01 0.01 93 1009.3
20260902113509 58 202 0.0 0.0 0.00 0.01 0.01 93 1009.4
20260902113004 59 205 0.0 0.0 0.00 0.01 0.01 94 1009.5
20260902112459 58 203 0.0 0.0 0.00 0.01 0.01 94 1009.6
20260902111955 59 200 0.0 0.0 0.00 0.01 0.01 95 1009.5
20260902111452 58 197 0.0 1.0 0.00 0.01 0.01 95 1009.8
20260902110947 58 204 0.0 0.0 0.00 0.01 0.01 96 1009.5
20260902110443 58 198 0.0 0.0 0.00 0.01 0.01 96 1009.8
20260902105943 58 200 0.0 0.0 0.00 0.01 0.01 96 1009.8
20260902105433 58 201 0.0 0.0 0.00 0.01 0.01 96 1009.8
20260902104927 58 201 0.0 0.0 0.00 0.01 0.01 96 1009.9
20260902104423 58 203 0.0 0.0 0.00 0.01 0.01 96 1009.9
20260902103922 58 202 0.0 0.0 0.00 0.01 0.01 96 1009.9
20260902103418 58 203 0.0 0.0 0.00 0.01 0.01 96 1009.8
20260902102913 58 210 0.0 1.0 0.00 0.01 0.01 97 1010.0
20260902102411 58 205 0.0 1.0 0.00 0.01 0.01 97 1009.9
20260902101907 58 203 0.0 0.0 0.00 0.01 0.01 97 1010.0
20260902101401 58 199 0.0 0.0 0.00 0.01 0.01 97 1010.1
20260902100900 58 206 0.0 1.0 0.00 0.01 0.01 97 1009.9
20260902100354 58 208 0.0 1.0 0.00 0.01 0.01 97 1010.2
20260902095849 58 216 0.0 0.0 0.00 0.01 0.01 97 1010.3
20260902095349 58 201 0.0 0.0 0.00 0.01 0.01 97 1010.2
20260902094843 59 200 0.0 0.0 0.00 0.01 0.01 97 1009.9
20260902094340 59 201 0.0 0.0 0.00 0.01 0.01 97 1010.0
20260902093838 59 197 0.0 0.0 0.00 0.01 0.01 97 1009.9
20260902093334 59 201 0.0 0.0 0.00 0.01 0.01 97 1010.2
20260902092832 59 201 0.0 0.0 0.00 0.01 0.01 96 1010.3
20260902092329 59 203 0.0 0.0 0.00 0.01 0.01 96 1010.2
20260902091823 59 204 0.0 0.0 0.00 0.01 0.01 96 1010.2
20260902091319 59 202 0.0 0.0 0.00 0.01 0.01 95 1010.2
20260902090815 60 207 0.0 0.0 0.00 0.01 0.01 95 1010.5
20260902090314 60 207 0.0 0.0 0.07 0.01 0.01 95 1010.5
20260902085813 60 205 0.0 0.0 0.07 0.01 0.01 94 1010.5
20260902085309 60 201 0.0 0.0 0.00 0.00 0.00 94 1010.6
20260902084804 60 202 0.0 1.0 0.00 0.00 0.00 94 1010.9
20260902084301 60 201 0.0 0.0 0.00 0.00 0.00 94 1010.6
20260902083756 60 207 0.0 0.0 0.00 0.00 0.00 94 1010.7
20260902083250 60 201 0.0 0.0 0.00 0.00 0.00 94 1010.9
20260902082745 60 199 0.0 0.0 0.00 0.00 0.00 94 1010.8
20260902082242 60 164 0.0 0.0 0.00 0.00 0.00 94 1010.8
20260902081738 60 172 0.0 0.0 0.00 0.00 0.00 95 1010.6
20260902081233 59 171 0.0 0.0 0.00 0.00 0.00 95 1010.6
20260902080728 59 203 0.0 1.0 0.00 0.00 0.00 95 1010.7
20260902080225 59 198 0.0 2.0 0.00 0.00 0.00 95 1011.1
20260902075724 59 200 0.0 0.0 0.00 0.00 0.00 95 1010.6
20260902075220 59 201 0.0 2.0 0.00 0.00 0.00 95 1010.6
20260902074720 59 200 0.0 1.0 0.00 0.00 0.00 95 1010.7
20260902074216 59 194 0.0 0.0 0.00 0.00 0.00 95 1010.8
20260902073711 60 206 0.0 0.0 0.00 0.00 0.00 95 1010.9
20260902073207 60 204 0.0 0.0 0.00 0.00 0.00 95 1010.8
20260902072703 60 204 0.0 0.0 0.00 0.00 0.00 95 1010.9
20260902072159 60 199 0.0 0.0 0.00 0.00 0.00 95 1011.1
20260902071654 60 209 0.0 0.0 0.00 0.00 0.00 95 1011.0
20260902071149 60 205 0.0 0.0 0.00 0.00 0.00 94 1010.8
20260902070646 60 204 0.0 0.0 0.00 0.00 0.00 94 1010.9
20260902070145 60 201 0.0 0.0 0.00 0.00 0.00 94 1011.3
20260902065644 60 169 0.0 0.0 0.00 0.00 0.00 94 1011.1
20260902065140 60 204 0.0 0.0 0.00 0.00 0.00 94 1011.2
20260902064635 60 144 0.0 0.0 0.00 0.00 0.00 94 1011.1
20260902064131 60 202 0.0 0.0 0.00 0.00 0.00 94 1011.1
20260902063626 60 201 0.0 1.0 0.00 0.00 0.00 94 1011.1
20260902063121 60 205 0.0 0.0 0.00 0.00 0.00 94 1011.1
20260902062619 60 200 0.0 0.0 0.00 0.00 0.00 94 1011.3
20260902062115 60 200 0.0 0.0 0.00 0.00 0.00 94 1011.3
20260902061614 60 204 0.0 1.0 0.00 0.00 0.00 93 1011.3
20260902061110 61 199 0.0 0.0 0.00 0.00 0.00 93 1011.4
20260902060607 61 201 0.0 0.0 0.00 0.00 0.00 92 1011.1
20260902055558 60 211 0.0 0.0 0.00 0.00 0.00 91 1011.2
20260902055054 60 210 0.0 1.0 0.00 0.00 0.00 91 1011.1
20260902054548 60 212 0.0 3.0 0.00 0.00 0.00 92 1011.5
20260902054044 60 213 1.0 2.0 0.00 0.00 0.00 94 1011.6
20260902053539 60 208 0.0 1.0 0.00 0.00 0.00 94 1011.5
20260902053039 60 202 0.0 1.0 0.00 0.00 0.00 94 1011.5
20260902052533 61 201 0.0 0.0 0.00 0.00 0.00 93 1011.5
20260902052030 60 200 0.0 0.0 0.00 0.00 0.00 93 1011.7
20260902051529 60 203 0.0 0.0 0.00 0.00 0.00 93 1011.4
20260902051028 60 205 0.0 1.0 0.00 0.00 0.00 93 1011.4
20260902050522 60 203 0.0 2.0 0.00 0.00 0.00 93 1011.4
20260902050018 60 202 0.0 0.0 0.00 0.00 0.00 93 1011.5
20260902045513 60 202 0.0 1.0 0.00 0.00 0.00 94 1011.4
20260902045010 60 195 0.0 0.0 0.00 0.00 0.00 93 1011.3
20260902044504 60 205 0.0 1.0 0.00 0.00 0.00 93 1011.2
20260902044000 60 203 0.0 0.0 0.00 0.00 0.00 93 1011.2
20260902043454 60 203 0.0 0.0 0.00 0.00 0.00 93 1011.5
20260902042950 60 199 1.0 1.0 0.00 0.00 0.00 93 1011.5
20260902042449 60 204 0.0 0.0 0.00 0.00 0.00 93 1011.3
20260902041944 60 202 0.0 0.0 0.00 0.00 0.00 94 1011.4
20260902041439 60 205 0.0 0.0 0.00 0.00 0.00 94 1011.4
20260902040939 60 198 0.0 1.0 0.00 0.00 0.00 94 1011.6
20260902040433 60 203 0.0 1.0 0.00 0.00 0.00 94 1011.4
20260902035932 60 200 0.0 0.0 0.00 0.00 0.00 94 1011.3
20260902035428 60 201 0.0 0.0 0.00 0.00 0.00 94 1011.4
20260902034927 60 206 0.0 0.0 0.00 0.00 0.00 94 1011.4
20260902034422 60 203 0.0 0.0 0.00 0.00 0.00 94 1011.5
20260902033921 60 172 0.0 1.0 0.00 0.00 0.00 94 1011.4
20260902033414 60 205 0.0 1.0 0.00 0.00 0.00 93 1011.6
20260902032914 61 201 0.0 0.0 0.00 0.00 0.00 92 1011.4
20260902032408 61 208 0.0 2.0 0.00 0.00 0.00 91 1011.3
20260902031903 61 208 2.0 2.0 0.00 0.00 0.00 89 1011.4
20260902031359 62 211 0.0 2.0 0.00 0.00 0.00 88 1011.3
20260902030855 62 209 0.0 2.0 0.00 0.00 0.00 87 1011.5
20260902030349 63 257 1.0 6.0 0.00 0.00 0.00 83 1011.3
20260902025848 64 208 0.0 3.0 0.00 0.00 0.00 80 1011.3
20260902025344 64 256 2.0 3.0 0.00 0.00 0.00 80 1011.1
20260902024838 64 213 0.0 2.0 0.00 0.00 0.00 80 1011.0
20260902024334 65 208 1.0 3.0 0.00 0.00 0.00 79 1011.0
20260902023829 65 262 3.0 3.0 0.00 0.00 0.00 78 1010.9
20260902023325 65 214 1.0 2.0 0.00 0.00 0.00 78 1011.0
20260902022823 65 211 1.0 3.0 0.00 0.00 0.00 78 1011.0
20260902022319 65 210 3.0 5.0 0.00 0.00 0.00 78 1010.9
20260902021815 65 210 0.0 2.0 0.00 0.00 0.00 80 1011.1
20260902021309 64 212 0.0 1.0 0.00 0.00 0.00 80 1011.0
20260902020805 64 208 1.0 1.0 0.00 0.00 0.00 80 1010.9
20260902020301 64 213 0.0 2.0 0.00 0.00 0.00 80 1010.9
20260902015756 64 212 0.0 1.0 0.00 0.00 0.00 80 1010.8
20260902015252 64 207 0.0 0.0 0.00 0.00 0.00 80 1011.0
20260902014748 65 212 0.0 2.0 0.00 0.00 0.00 79 1011.0
20260902014244 65 213 0.0 1.0 0.00 0.00 0.00 79 1010.9
20260902013743 65 222 1.0 2.0 0.00 0.00 0.00 79 1010.9
20260902013238 65 230 1.0 2.0 0.00 0.00 0.00 79 1011.0
20260902012733 65 206 1.0 3.0 0.00 0.00 0.00 79 1010.9
20260902012229 65 201 5.0 10.0 0.00 0.00 0.00 78 1011.0
20260902011724 65 238 3.0 6.0 0.00 0.00 0.00 78 1011.0
20260902011223 65 260 2.0 5.0 0.00 0.00 0.00 78 1011.2
20260902010718 66 286 4.0 6.0 0.00 0.00 0.00 77 1011.0
20260902010214 66 233 1.0 5.0 0.00 0.00 0.00 75 1011.0
20260902005712 66 214 1.0 3.0 0.00 0.00 0.00 75 1011.2
20260902005208 66 213 2.0 3.0 0.00 0.00 0.00 75 1011.0
20260902004708 66 230 2.0 3.0 0.00 0.00 0.00 75 1011.1
20260902004203 66 225 0.0 1.0 0.00 0.00 0.00 77 1011.1
20260902003658 65 211 0.0 0.0 0.00 0.00 0.00 79 1011.3
20260902003153 65 222 2.0 3.0 0.00 0.00 0.00 78 1011.0
20260902002648 65 236 3.0 5.0 0.00 0.00 0.00 78 1011.0
20260902002143 66 214 3.0 5.0 0.00 0.00 0.00 78 1011.2
20260902001638 66 211 2.0 3.0 0.00 0.00 0.00 77 1011.0